This is the latest recevied weather packets stored in our database for station/object IU5JAE-13. If no packets are shown the sender has not sent any weather packets the latest 10 day(s).
| Time | Temp. | Humidity | Pressure | Rain* | Wind** | Luminosity | Snow |
|---|---|---|---|---|---|---|---|
| 1777141522 | 13.33° C | 67% | 1016 hPa | 0 mm | - | 1 W/m² | - |
| 1777140919 | 13.89° C | 70% | 1015.8 hPa | 0 mm | - | 3 W/m² | - |
| 1777140317 | 13.89° C | 67% | 1015.7 hPa | 0 mm | - | 6 W/m² | - |
| 1777139734 | 13.89° C | 69% | 1015.7 hPa | 0 mm | - | 10 W/m² | - |
| 1777139132 | 14.44° C | 68% | 1015.7 hPa | 0 mm | - | 13 W/m² | - |
| 1777138529 | 14.44° C | 67% | 1015.6 hPa | 0 mm | - | 17 W/m² | - |
| 1777137927 | 14.44° C | 68% | 1015.6 hPa | 0 mm | - | 20 W/m² | - |
| 1777137325 | 14.44° C | 69% | 1015.6 hPa | 0 mm | - | 22 W/m² | - |
| 1777136722 | 15° C | 65% | 1015.5 hPa | 0 mm | - | 25 W/m² | - |
| 1777136120 | 15° C | 65% | 1015.6 hPa | 0 mm | - | 27 W/m² | - |
| 1777135517 | 15.56° C | 64% | 1015.6 hPa | 0 mm | - | 29 W/m² | - |
| 1777134935 | 15.56° C | 63% | 1015.6 hPa | 0 mm | - | 30 W/m² | - |
| 1777134333 | 16.11° C | 61% | 1015.5 hPa | 0 mm | - | 33 W/m² | - |
| 1777133730 | 16.67° C | 60% | 1015.6 hPa | 0 mm | - | 137 W/m² | - |
| 1777133128 | 16.67° C | 59% | 1015.6 hPa | 0 mm | - | 156 W/m² | - |
| 1777132525 | 17.22° C | 59% | 1015.6 hPa | 0 mm | - | 178 W/m² | - |
| 1777131923 | 17.78° C | 58% | 1015.5 hPa | 0 mm | - | 198 W/m² | - |
| 1777131321 | 17.78° C | 56% | 1015.5 hPa | 0 mm | - | 219 W/m² | - |
| 1777130718 | 17.78° C | 57% | 1015.6 hPa | 0 mm | - | 245 W/m² | - |
| 1777130116 | 17.78° C | 57% | 1015.4 hPa | 0 mm | - | 272 W/m² | - |
| 1777129534 | 17.78° C | 56% | 1015.5 hPa | 0 mm | - | 295 W/m² | - |
| 1777128931 | 17.78° C | 56% | 1015.5 hPa | 0 mm | - | 317 W/m² | - |
| 1777128329 | 17.78° C | 55% | 1015.5 hPa | 0 mm | - | 341 W/m² | - |
| 1777127726 | 18.33° C | 54% | 1015.5 hPa | 0 mm | - | 365 W/m² | - |
| 1777127124 | 18.33° C | 52% | 1015.5 hPa | 0 mm | - | 385 W/m² | - |
* Rain latest hour (hover to see other rain measurements)
** Current wind speed in m/s (hover to see current wind gust speed)